Location: Cisewo
(53.3833°N, 14.9000°E)
Time: 10:45:40
(UTC+00:00)

Cosmos 1763 Rocket - Pass Details

Date: 18 April 2021
Orbit: 733 x 779 km, 74.0° (Epoch: 15 May)

Event Time Altitude Azimuth Distance (km) Brightness Sun altitude
Rises 20:13:17 0° 335° (NNW) 3,187 8.1 -16.4°
Reaches altitude 10° 20:15:45 10° 342° (NNW) 2,256 7.0 -16.7°
Maximum altitude 20:20:40 47° 56° (NE) 980 4.0 -17.2°
Enters shadow 20:22:57 28° 113° (ESE) 1,365 4.3 -17.4°
